Datum / Uhrzeit;kW;;
01.01.2023 00:15;82.786;;
01.01.2023 00:30;86.186;;
01.01.2023 00:45;81.338;;
01.01.2023 01:00;77.101;;
01.01.2023 01:15;82.358;;
01.01.2023 01:30;84.171;;
01.01.2023 01:45;79.422;;
01.01.2023 02:00;73.643;;
01.01.2023 02:15;72.716;;
01.01.2023 02:30;69.591;;
01.01.2023 02:45;65.081;;
01.01.2023 03:00;65.304;;
01.01.2023 03:15;63.483;;
01.01.2023 03:30;62.884;;
01.01.2023 03:45;66.591;;
01.01.2023 04:00;68.888;;
01.01.2023 04:15;71.248;;
01.01.2023 04:30;75.855;;
01.01.2023 04:45;76.456;;
01.01.2023 05:00;75.397;;
01.01.2023 05:15;72.913;;
01.01.2023 05:30;69.520;;
01.01.2023 05:45;69.515;;
01.01.2023 06:00;69.368;;
01.01.2023 06:15;66.445;;
01.01.2023 06:30;70.011;;
01.01.2023 06:45;69.002;;
01.01.2023 07:00;67.601;;
01.01.2023 07:15;69.221;;
01.01.2023 07:30;68.086;;
01.01.2023 07:45;70.086;;
01.01.2023 08:00;67.437;;
01.01.2023 08:15;67.596;;
01.01.2023 08:30;67.167;;
01.01.2023 08:45;67.898;;
01.01.2023 09:00;68.888;;
01.01.2023 09:15;68.911;;
01.01.2023 09:30;73.667;;
01.01.2023 09:45;74.817;;
01.01.2023 10:00;78.286;;
01.01.2023 10:15;76.918;;
01.01.2023 10:30;76.553;;
01.01.2023 10:45;79.445;;
01.01.2023 11:00;80.487;;
01.01.2023 11:15;82.689;;
01.01.2023 11:30;87.266;;
01.01.2023 11:45;79.462;;
01.01.2023 12:00;87.250;;
01.01.2023 12:15;94.025;;
01.01.2023 12:30;104.709;;
01.01.2023 12:45;107.354;;
01.01.2023 13:00;106.314;;
01.01.2023 13:15;105.217;;
01.01.2023 13:30;108.847;;
01.01.2023 13:45;109.881;;
01.01.2023 14:00;115.604;;
01.01.2023 14:15;119.265;;
01.01.2023 14:30;122.802;;
01.01.2023 14:45;122.540;;
01.01.2023 15:00;122.626;;
01.01.2023 15:15;119.122;;
01.01.2023 15:30;117.351;;
01.01.2023 15:45;117.317;;
01.01.2023 16:00;120.147;;
01.01.2023 16:15;127.714;;
01.01.2023 16:30;136.434;;
01.01.2023 16:45;140.268;;
01.01.2023 17:00;144.438;;
01.01.2023 17:15;145.542;;
01.01.2023 17:30;153.797;;
01.01.2023 17:45;159.637;;
01.01.2023 18:00;152.547;;
01.01.2023 18:15;147.263;;
01.01.2023 18:30;144.794;;
01.01.2023 18:45;138.895;;
01.01.2023 19:00;131.675;;
01.01.2023 19:15;128.853;;
01.01.2023 19:30;122.461;;
01.01.2023 19:45;121.052;;
01.01.2023 20:00;112.439;;
01.01.2023 20:15;108.195;;
01.01.2023 20:30;105.301;;
01.01.2023 20:45;105.832;;
01.01.2023 21:00;104.423;;
01.01.2023 21:15;100.482;;
01.01.2023 21:30;99.829;;
01.01.2023 21:45;101.044;;
01.01.2023 22:00;98.111;;
01.01.2023 22:15;100.566;;
01.01.2023 22:30;101.427;;
01.01.2023 22:45;96.965;;
01.01.2023 23:00;96.091;;
01.01.2023 23:15;91.599;;
01.01.2023 23:30;89.412;;
01.01.2023 23:45;84.425;;
02.01.2023 00:00;80.405;;
02.01.2023 00:15;77.225;;
02.01.2023 00:30;75.782;;
02.01.2023 00:45;75.423;;
02.01.2023 01:00;73.375;;
02.01.2023 01:15;76.805;;
02.01.2023 01:30;78.391;;
02.01.2023 01:45;76.467;;
02.01.2023 02:00;73.154;;
02.01.2023 02:15;68.710;;
02.01.2023 02:30;64.170;;
02.01.2023 02:45;65.185;;
02.01.2023 03:00;62.853;;
02.01.2023 03:15;61.669;;
02.01.2023 03:30;64.707;;
02.01.2023 03:45;64.508;;
02.01.2023 04:00;69.068;;
02.01.2023 04:15;75.275;;
02.01.2023 04:30;74.267;;
02.01.2023 04:45;78.630;;
02.01.2023 05:00;85.197;;
02.01.2023 05:15;92.410;;
02.01.2023 05:30;95.214;;
02.01.2023 05:45;99.488;;
02.01.2023 06:00;106.123;;
02.01.2023 06:15;111.996;;
02.01.2023 06:30;114.707;;
02.01.2023 06:45;114.510;;
02.01.2023 07:00;114.524;;
02.01.2023 07:15;119.235;;
02.01.2023 07:30;121.085;;
02.01.2023 07:45;125.613;;
02.01.2023 08:00;131.081;;
02.01.2023 08:15;133.298;;
02.01.2023 08:30;134.179;;
02.01.2023 08:45;134.106;;
02.01.2023 09:00;129.426;;
02.01.2023 09:15;130.398;;
02.01.2023 09:30;124.025;;
02.01.2023 09:45;117.367;;
02.01.2023 10:00;119.981;;
02.01.2023 10:15;122.040;;
02.01.2023 10:30;129.944;;
02.01.2023 10:45;128.864;;
02.01.2023 11:00;112.142;;
02.01.2023 11:15;114.861;;
02.01.2023 11:30;123.523;;
02.01.2023 11:45;122.723;;
02.01.2023 12:00;124.031;;
02.01.2023 12:15;121.169;;
02.01.2023 12:30;129.063;;
02.01.2023 12:45;139.793;;
02.01.2023 13:00;139.128;;
02.01.2023 13:15;128.733;;
02.01.2023 13:30;136.951;;
02.01.2023 13:45;137.461;;
02.01.2023 14:00;139.809;;
02.01.2023 14:15;140.337;;
02.01.2023 14:30;136.253;;
02.01.2023 14:45;139.334;;
02.01.2023 15:00;142.966;;
02.01.2023 15:15;146.721;;
02.01.2023 15:30;144.311;;
02.01.2023 15:45;143.771;;
02.01.2023 16:00;148.536;;
02.01.2023 16:15;150.705;;
02.01.2023 16:30;144.094;;
02.01.2023 16:45;135.028;;
02.01.2023 17:00;147.345;;
02.01.2023 17:15;173.351;;
02.01.2023 17:30;196.241;;
02.01.2023 17:45;182.529;;
02.01.2023 18:00;172.896;;
02.01.2023 18:15;167.591;;
02.01.2023 18:30;164.565;;
02.01.2023 18:45;155.890;;
02.01.2023 19:00;154.515;;
02.01.2023 19:15;147.759;;
02.01.2023 19:30;150.139;;
02.01.2023 19:45;148.641;;
02.01.2023 20:00;150.777;;
02.01.2023 20:15;140.207;;
02.01.2023 20:30;133.006;;
02.01.2023 20:45;134.989;;
02.01.2023 21:00;143.095;;
02.01.2023 21:15;147.990;;
02.01.2023 21:30;144.571;;
02.01.2023 21:45;146.368;;
02.01.2023 22:00;144.344;;
02.01.2023 22:15;144.463;;
02.01.2023 22:30;138.941;;
02.01.2023 22:45;143.209;;
02.01.2023 23:00;145.060;;
02.01.2023 23:15;142.459;;
02.01.2023 23:30;137.771;;
02.01.2023 23:45;134.923;;
03.01.2023 00:00;129.843;;
03.01.2023 00:15;125.042;;
03.01.2023 00:30;125.112;;
03.01.2023 00:45;126.121;;
03.01.2023 01:00;123.311;;
03.01.2023 01:15;119.989;;
03.01.2023 01:30;116.860;;
03.01.2023 01:45;115.679;;
03.01.2023 02:00;113.720;;
03.01.2023 02:15;112.846;;
03.01.2023 02:30;111.186;;
03.01.2023 02:45;112.467;;
03.01.2023 03:00;112.639;;
03.01.2023 03:15;110.291;;
03.01.2023 03:30;108.611;;
03.01.2023 03:45;109.066;;
03.01.2023 04:00;105.421;;
03.01.2023 04:15;106.266;;
03.01.2023 04:30;109.556;;
03.01.2023 04:45;113.802;;
03.01.2023 05:00;116.265;;
03.01.2023 05:15;125.749;;
03.01.2023 05:30;130.036;;
03.01.2023 05:45;134.446;;
03.01.2023 06:00;142.278;;
03.01.2023 06:15;151.264;;
03.01.2023 06:30;156.064;;
03.01.2023 06:45;156.532;;
03.01.2023 07:00;161.684;;
03.01.2023 07:15;171.828;;
03.01.2023 07:30;173.583;;
03.01.2023 07:45;181.849;;
03.01.2023 08:00;193.369;;
03.01.2023 08:15;199.095;;
03.01.2023 08:30;203.204;;
03.01.2023 08:45;206.394;;
03.01.2023 09:00;211.481;;
03.01.2023 09:15;214.659;;
03.01.2023 09:30;216.827;;
03.01.2023 09:45;211.176;;
03.01.2023 10:00;204.224;;
03.01.2023 10:15;195.811;;
03.01.2023 10:30;184.722;;
03.01.2023 10:45;171.227;;
03.01.2023 11:00;167.191;;
03.01.2023 11:15;167.098;;
03.01.2023 11:30;173.692;;
03.01.2023 11:45;176.475;;
03.01.2023 12:00;180.937;;
03.01.2023 12:15;187.125;;
03.01.2023 12:30;187.915;;
03.01.2023 12:45;181.704;;
03.01.2023 13:00;183.090;;
03.01.2023 13:15;192.676;;
03.01.2023 13:30;191.831;;
03.01.2023 13:45;182.356;;
03.01.2023 14:00;172.838;;
03.01.2023 14:15;169.942;;
03.01.2023 14:30;171.216;;
03.01.2023 14:45;169.735;;
03.01.2023 15:00;164.860;;
03.01.2023 15:15;164.257;;
03.01.2023 15:30;163.408;;
03.01.2023 15:45;166.631;;
03.01.2023 16:00;171.285;;
03.01.2023 16:15;180.480;;
03.01.2023 16:30;185.141;;
03.01.2023 16:45;189.395;;
03.01.2023 17:00;191.707;;
03.01.2023 17:15;192.299;;
03.01.2023 17:30;189.257;;
03.01.2023 17:45;185.650;;
03.01.2023 18:00;181.846;;
03.01.2023 18:15;176.957;;
03.01.2023 18:30;165.308;;
03.01.2023 18:45;161.812;;
03.01.2023 19:00;158.079;;
03.01.2023 19:15;154.938;;
03.01.2023 19:30;158.108;;
03.01.2023 19:45;158.246;;
03.01.2023 20:00;160.566;;
03.01.2023 20:15;157.208;;
03.01.2023 20:30;150.631;;
03.01.2023 20:45;147.310;;
03.01.2023 21:00;146.439;;
03.01.2023 21:15;146.143;;
03.01.2023 21:30;140.524;;
03.01.2023 21:45;138.737;;
03.01.2023 22:00;136.657;;
03.01.2023 22:15;133.490;;
03.01.2023 22:30;128.616;;
03.01.2023 22:45;127.271;;
03.01.2023 23:00;124.444;;
03.01.2023 23:15;113.938;;
03.01.2023 23:30;109.471;;
03.01.2023 23:45;105.689;;
04.01.2023 00:00;103.806;;
04.01.2023 00:15;101.561;;
04.01.2023 00:30;103.964;;
04.01.2023 00:45;99.029;;
04.01.2023 01:00;98.539;;
04.01.2023 01:15;98.027;;
04.01.2023 01:30;98.735;;
04.01.2023 01:45;96.990;;
04.01.2023 02:00;99.877;;
04.01.2023 02:15;98.769;;
04.01.2023 02:30;95.072;;
04.01.2023 02:45;97.556;;
04.01.2023 03:00;98.143;;
04.01.2023 03:15;95.972;;
04.01.2023 03:30;95.523;;
04.01.2023 03:45;95.120;;
04.01.2023 04:00;93.831;;
04.01.2023 04:15;91.505;;
04.01.2023 04:30;88.605;;
04.01.2023 04:45;84.244;;
04.01.2023 05:00;87.853;;
04.01.2023 05:15;86.323;;
04.01.2023 05:30;80.869;;
04.01.2023 05:45;82.607;;
04.01.2023 06:00;88.607;;
04.01.2023 06:15;93.376;;
04.01.2023 06:30;97.527;;
04.01.2023 06:45;99.134;;
04.01.2023 07:00;101.408;;
04.01.2023 07:15;106.608;;
04.01.2023 07:30;112.517;;
04.01.2023 07:45;113.945;;
04.01.2023 08:00;112.724;;
04.01.2023 08:15;119.218;;
04.01.2023 08:30;121.770;;
04.01.2023 08:45;121.279;;
04.01.2023 09:00;122.838;;
04.01.2023 09:15;126.044;;
04.01.2023 09:30;125.798;;
04.01.2023 09:45;126.599;;
04.01.2023 10:00;128.195;;
04.01.2023 10:15;131.023;;
04.01.2023 10:30;136.511;;
04.01.2023 10:45;141.113;;
04.01.2023 11:00;143.023;;
04.01.2023 11:15;140.593;;
04.01.2023 11:30;142.741;;
04.01.2023 11:45;147.696;;
04.01.2023 12:00;149.585;;
04.01.2023 12:15;143.877;;
04.01.2023 12:30;137.896;;
04.01.2023 12:45;143.654;;
04.01.2023 13:00;143.678;;
04.01.2023 13:15;138.854;;
04.01.2023 13:30;138.563;;
04.01.2023 13:45;131.065;;
04.01.2023 14:00;128.472;;
04.01.2023 14:15;127.401;;
04.01.2023 14:30;128.519;;
04.01.2023 14:45;126.267;;
04.01.2023 15:00;125.585;;
04.01.2023 15:15;125.284;;
04.01.2023 15:30;124.829;;
04.01.2023 15:45;124.600;;
04.01.2023 16:00;123.410;;
04.01.2023 16:15;123.234;;
04.01.2023 16:30;123.900;;
04.01.2023 16:45;125.788;;
04.01.2023 17:00;132.410;;
04.01.2023 17:15;139.855;;
04.01.2023 17:30;138.810;;
04.01.2023 17:45;137.880;;
04.01.2023 18:00;136.325;;
04.01.2023 18:15;134.046;;
04.01.2023 18:30;132.664;;
04.01.2023 18:45;133.003;;
04.01.2023 19:00;131.938;;
04.01.2023 19:15;128.660;;
04.01.2023 19:30;127.674;;
04.01.2023 19:45;127.112;;
04.01.2023 20:00;125.169;;
04.01.2023 20:15;122.255;;
04.01.2023 20:30;121.012;;
04.01.2023 20:45;116.048;;
04.01.2023 21:00;112.094;;
04.01.2023 21:15;107.875;;
04.01.2023 21:30;106.367;;
04.01.2023 21:45;106.632;;
04.01.2023 22:00;105.487;;
04.01.2023 22:15;106.257;;
04.01.2023 22:30;105.513;;
04.01.2023 22:45;102.001;;
04.01.2023 23:00;99.245;;
04.01.2023 23:15;95.591;;
04.01.2023 23:30;91.738;;
04.01.2023 23:45;90.728;;
05.01.2023 00:00;91.091;;
05.01.2023 00:15;89.731;;
05.01.2023 00:30;84.991;;
05.01.2023 00:45;82.244;;
05.01.2023 01:00;80.662;;
05.01.2023 01:15;78.084;;
05.01.2023 01:30;79.011;;
05.01.2023 01:45;77.550;;
05.01.2023 02:00;76.523;;
05.01.2023 02:15;74.666;;
05.01.2023 02:30;72.152;;
05.01.2023 02:45;72.170;;
05.01.2023 03:00;72.654;;
05.01.2023 03:15;74.248;;
05.01.2023 03:30;77.918;;
05.01.2023 03:45;86.192;;
05.01.2023 04:00;93.446;;
05.01.2023 04:15;86.476;;
05.01.2023 04:30;96.007;;
05.01.2023 04:45;89.440;;
05.01.2023 05:00;87.073;;
05.01.2023 05:15;89.684;;
05.01.2023 05:30;88.258;;
05.01.2023 05:45;99.581;;
05.01.2023 06:00;106.378;;
05.01.2023 06:15;115.982;;
05.01.2023 06:30;117.686;;
05.01.2023 06:45;120.951;;
05.01.2023 07:00;124.176;;
05.01.2023 07:15;129.760;;
05.01.2023 07:30;137.983;;
05.01.2023 07:45;139.089;;
05.01.2023 08:00;149.503;;
05.01.2023 08:15;163.359;;
05.01.2023 08:30;149.577;;
05.01.2023 08:45;152.493;;
05.01.2023 09:00;155.327;;
05.01.2023 09:15;150.291;;
05.01.2023 09:30;145.001;;
05.01.2023 09:45;134.697;;
05.01.2023 10:00;144.677;;
05.01.2023 10:15;148.534;;
05.01.2023 10:30;144.981;;
05.01.2023 10:45;140.193;;
05.01.2023 11:00;141.600;;
05.01.2023 11:15;133.672;;
05.01.2023 11:30;130.096;;
05.01.2023 11:45;128.895;;
05.01.2023 12:00;139.251;;
05.01.2023 12:15;136.371;;
05.01.2023 12:30;136.919;;
05.01.2023 12:45;147.522;;
05.01.2023 13:00;147.083;;
05.01.2023 13:15;144.834;;
05.01.2023 13:30;142.625;;
05.01.2023 13:45;136.876;;
05.01.2023 14:00;147.447;;
05.01.2023 14:15;151.762;;
05.01.2023 14:30;158.667;;
05.01.2023 14:45;167.736;;
05.01.2023 15:00;170.859;;
05.01.2023 15:15;170.506;;
05.01.2023 15:30;167.307;;
05.01.2023 15:45;162.562;;
05.01.2023 16:00;159.778;;
05.01.2023 16:15;164.898;;
05.01.2023 16:30;167.964;;
05.01.2023 16:45;169.891;;
05.01.2023 17:00;171.690;;
05.01.2023 17:15;178.493;;
05.01.2023 17:30;185.808;;
05.01.2023 17:45;194.413;;
05.01.2023 18:00;191.499;;
05.01.2023 18:15;184.371;;
05.01.2023 18:30;189.083;;
05.01.2023 18:45;190.721;;
05.01.2023 19:00;194.834;;
05.01.2023 19:15;185.681;;
05.01.2023 19:30;181.948;;
05.01.2023 19:45;175.398;;
05.01.2023 20:00;166.594;;
05.01.2023 20:15;161.687;;
05.01.2023 20:30;161.261;;
05.01.2023 20:45;157.265;;
05.01.2023 21:00;151.532;;
05.01.2023 21:15;148.116;;
05.01.2023 21:30;144.485;;
05.01.2023 21:45;145.869;;
05.01.2023 22:00;144.424;;
05.01.2023 22:15;145.084;;
05.01.2023 22:30;146.211;;
05.01.2023 22:45;143.025;;
05.01.2023 23:00;136.728;;
05.01.2023 23:15;130.248;;
05.01.2023 23:30;126.240;;
05.01.2023 23:45;119.804;;
06.01.2023 00:00;118.810;;
06.01.2023 00:15;112.773;;
06.01.2023 00:30;109.920;;
06.01.2023 00:45;105.391;;
06.01.2023 01:00;106.805;;
06.01.2023 01:15;106.900;;
06.01.2023 01:30;98.246;;
06.01.2023 01:45;97.589;;
06.01.2023 02:00;101.624;;
06.01.2023 02:15;101.222;;
06.01.2023 02:30;98.655;;
06.01.2023 02:45;99.960;;
06.01.2023 03:00;101.276;;
06.01.2023 03:15;107.422;;
06.01.2023 03:30;107.722;;
06.01.2023 03:45;105.370;;
06.01.2023 04:00;107.528;;
06.01.2023 04:15;108.764;;
06.01.2023 04:30;107.487;;
06.01.2023 04:45;113.553;;
06.01.2023 05:00;113.243;;
06.01.2023 05:15;112.808;;
06.01.2023 05:30;114.128;;
06.01.2023 05:45;122.852;;
06.01.2023 06:00;129.283;;
06.01.2023 06:15;135.650;;
06.01.2023 06:30;140.335;;
06.01.2023 06:45;152.247;;
06.01.2023 07:00;156.110;;
06.01.2023 07:15;155.290;;
06.01.2023 07:30;157.177;;
06.01.2023 07:45;157.241;;
06.01.2023 08:00;151.506;;
06.01.2023 08:15;150.095;;
06.01.2023 08:30;153.076;;
06.01.2023 08:45;156.038;;
06.01.2023 09:00;156.551;;
06.01.2023 09:15;156.355;;
06.01.2023 09:30;155.883;;
06.01.2023 09:45;156.414;;
06.01.2023 10:00;152.217;;
06.01.2023 10:15;149.511;;
06.01.2023 10:30;157.653;;
06.01.2023 10:45;157.469;;
06.01.2023 11:00;158.264;;
06.01.2023 11:15;155.589;;
06.01.2023 11:30;153.257;;
06.01.2023 11:45;149.700;;
06.01.2023 12:00;140.437;;
06.01.2023 12:15;136.558;;
06.01.2023 12:30;118.089;;
06.01.2023 12:45;112.684;;
06.01.2023 13:00;114.763;;
06.01.2023 13:15;117.953;;
06.01.2023 13:30;118.106;;
06.01.2023 13:45;126.032;;
06.01.2023 14:00;128.184;;
06.01.2023 14:15;135.991;;
06.01.2023 14:30;140.906;;
06.01.2023 14:45;135.698;;
06.01.2023 15:00;134.474;;
06.01.2023 15:15;132.700;;
06.01.2023 15:30;136.782;;
06.01.2023 15:45;143.508;;
06.01.2023 16:00;152.920;;
06.01.2023 16:15;153.820;;
06.01.2023 16:30;155.368;;
06.01.2023 16:45;154.174;;
06.01.2023 17:00;152.778;;
06.01.2023 17:15;156.863;;
06.01.2023 17:30;165.490;;
06.01.2023 17:45;167.703;;
06.01.2023 18:00;166.025;;
06.01.2023 18:15;159.337;;
06.01.2023 18:30;161.508;;
06.01.2023 18:45;161.935;;
06.01.2023 19:00;155.069;;
06.01.2023 19:15;151.697;;
06.01.2023 19:30;158.021;;
06.01.2023 19:45;156.481;;
06.01.2023 20:00;153.748;;
06.01.2023 20:15;156.038;;
06.01.2023 20:30;157.027;;
06.01.2023 20:45;158.510;;
06.01.2023 21:00;156.472;;
06.01.2023 21:15;147.550;;
06.01.2023 21:30;144.556;;
06.01.2023 21:45;152.083;;
06.01.2023 22:00;154.577;;
06.01.2023 22:15;159.130;;
06.01.2023 22:30;163.657;;
06.01.2023 22:45;166.354;;
06.01.2023 23:00;161.417;;
06.01.2023 23:15;151.732;;
06.01.2023 23:30;145.273;;
06.01.2023 23:45;144.311;;
07.01.2023 00:00;142.602;;
07.01.2023 00:15;141.132;;
07.01.2023 00:30;139.179;;
07.01.2023 00:45;134.434;;
07.01.2023 01:00;128.457;;
07.01.2023 01:15;121.533;;
07.01.2023 01:30;120.096;;
07.01.2023 01:45;117.765;;
07.01.2023 02:00;115.913;;
07.01.2023 02:15;115.066;;
07.01.2023 02:30;117.802;;
07.01.2023 02:45;116.478;;
07.01.2023 03:00;114.179;;
07.01.2023 03:15;112.528;;
07.01.2023 03:30;111.039;;
07.01.2023 03:45;112.496;;
07.01.2023 04:00;111.345;;
07.01.2023 04:15;112.015;;
07.01.2023 04:30;113.153;;
07.01.2023 04:45;113.793;;
07.01.2023 05:00;115.946;;
07.01.2023 05:15;116.867;;
07.01.2023 05:30;116.819;;
07.01.2023 05:45;116.010;;
07.01.2023 06:00;116.278;;
07.01.2023 06:15;117.352;;
07.01.2023 06:30;114.026;;
07.01.2023 06:45;115.370;;
07.01.2023 07:00;111.292;;
07.01.2023 07:15;113.668;;
07.01.2023 07:30;113.539;;
07.01.2023 07:45;115.517;;
07.01.2023 08:00;119.914;;
07.01.2023 08:15;117.899;;
07.01.2023 08:30;113.044;;
07.01.2023 08:45;112.368;;
07.01.2023 09:00;116.428;;
07.01.2023 09:15;124.119;;
07.01.2023 09:30;129.232;;
07.01.2023 09:45;132.374;;
07.01.2023 10:00;130.411;;
07.01.2023 10:15;128.932;;
07.01.2023 10:30;128.270;;
07.01.2023 10:45;124.875;;
07.01.2023 11:00;122.216;;
07.01.2023 11:15;121.017;;
07.01.2023 11:30;121.321;;
07.01.2023 11:45;126.747;;
07.01.2023 12:00;127.183;;
07.01.2023 12:15;132.185;;
07.01.2023 12:30;132.605;;
07.01.2023 12:45;124.999;;
07.01.2023 13:00;124.041;;
07.01.2023 13:15;123.587;;
07.01.2023 13:30;122.091;;
07.01.2023 13:45;123.342;;
07.01.2023 14:00;123.297;;
07.01.2023 14:15;122.147;;
07.01.2023 14:30;123.434;;
07.01.2023 14:45;124.468;;
07.01.2023 15:00;126.167;;
07.01.2023 15:15;127.930;;
07.01.2023 15:30;127.426;;
07.01.2023 15:45;127.609;;
07.01.2023 16:00;127.463;;
07.01.2023 16:15;127.769;;
07.01.2023 16:30;126.509;;
07.01.2023 16:45;131.841;;
07.01.2023 17:00;131.450;;
07.01.2023 17:15;134.483;;
07.01.2023 17:30;132.358;;
07.01.2023 17:45;132.019;;
07.01.2023 18:00;134.487;;
07.01.2023 18:15;139.976;;
07.01.2023 18:30;138.797;;
07.01.2023 18:45;138.486;;
07.01.2023 19:00;138.374;;
07.01.2023 19:15;136.970;;
07.01.2023 19:30;131.035;;
07.01.2023 19:45;128.166;;
07.01.2023 20:00;123.787;;
07.01.2023 20:15;120.054;;
07.01.2023 20:30;116.104;;
07.01.2023 20:45;113.297;;
07.01.2023 21:00;119.012;;
07.01.2023 21:15;118.949;;
07.01.2023 21:30;115.208;;
07.01.2023 21:45;117.154;;
07.01.2023 22:00;120.810;;
07.01.2023 22:15;128.433;;
07.01.2023 22:30;130.030;;
07.01.2023 22:45;124.881;;
07.01.2023 23:00;120.936;;
07.01.2023 23:15;110.698;;
07.01.2023 23:30;100.126;;
07.01.2023 23:45;92.437;;
08.01.2023 00:00;85.725;;
08.01.2023 00:15;83.101;;
08.01.2023 00:30;84.148;;
08.01.2023 00:45;79.161;;
08.01.2023 01:00;82.675;;
08.01.2023 01:15;91.007;;
08.01.2023 01:30;88.778;;
08.01.2023 01:45;83.655;;
08.01.2023 02:00;75.006;;
08.01.2023 02:15;66.780;;
08.01.2023 02:30;65.884;;
08.01.2023 02:45;71.291;;
08.01.2023 03:00;72.665;;
08.01.2023 03:15;76.783;;
08.01.2023 03:30;77.275;;
08.01.2023 03:45;78.974;;
08.01.2023 04:00;80.845;;
08.01.2023 04:15;79.025;;
08.01.2023 04:30;80.752;;
08.01.2023 04:45;85.178;;
08.01.2023 05:00;77.231;;
08.01.2023 05:15;73.200;;
08.01.2023 05:30;67.533;;
08.01.2023 05:45;64.842;;
08.01.2023 06:00;63.088;;
08.01.2023 06:15;64.949;;
08.01.2023 06:30;68.311;;
08.01.2023 06:45;73.302;;
08.01.2023 07:00;73.557;;
08.01.2023 07:15;79.686;;
08.01.2023 07:30;84.841;;
08.01.2023 07:45;78.133;;
08.01.2023 08:00;75.107;;
08.01.2023 08:15;78.404;;
08.01.2023 08:30;78.330;;
08.01.2023 08:45;82.950;;
08.01.2023 09:00;88.841;;
08.01.2023 09:15;90.029;;
08.01.2023 09:30;99.981;;
08.01.2023 09:45;108.888;;
08.01.2023 10:00;112.754;;
08.01.2023 10:15;114.280;;
08.01.2023 10:30;119.231;;
08.01.2023 10:45;123.095;;
08.01.2023 11:00;126.197;;
08.01.2023 11:15;126.968;;
08.01.2023 11:30;130.187;;
08.01.2023 11:45;123.435;;
08.01.2023 12:00;114.805;;
08.01.2023 12:15;121.893;;
08.01.2023 12:30;125.288;;
08.01.2023 12:45;122.984;;
08.01.2023 13:00;126.502;;
08.01.2023 13:15;125.398;;
08.01.2023 13:30;118.521;;
08.01.2023 13:45;117.475;;
08.01.2023 14:00;117.524;;
08.01.2023 14:15;114.927;;
08.01.2023 14:30;113.902;;
08.01.2023 14:45;112.546;;
08.01.2023 15:00;106.998;;
08.01.2023 15:15;118.964;;
08.01.2023 15:30;118.029;;
08.01.2023 15:45;115.689;;
08.01.2023 16:00;118.973;;
08.01.2023 16:15;120.056;;
08.01.2023 16:30;127.598;;
08.01.2023 16:45;128.966;;
08.01.2023 17:00;131.680;;
08.01.2023 17:15;141.126;;
08.01.2023 17:30;151.196;;
08.01.2023 17:45;145.538;;
08.01.2023 18:00;141.632;;
08.01.2023 18:15;143.023;;
08.01.2023 18:30;143.481;;
08.01.2023 18:45;149.972;;
08.01.2023 19:00;154.118;;
08.01.2023 19:15;150.178;;
08.01.2023 19:30;138.920;;
08.01.2023 19:45;134.819;;
08.01.2023 20:00;132.280;;
08.01.2023 20:15;130.365;;
08.01.2023 20:30;131.135;;
08.01.2023 20:45;128.087;;
08.01.2023 21:00;123.949;;
08.01.2023 21:15;117.664;;
08.01.2023 21:30;116.095;;
08.01.2023 21:45;119.590;;
08.01.2023 22:00;120.313;;
08.01.2023 22:15;118.498;;
08.01.2023 22:30;112.514;;
08.01.2023 22:45;105.912;;
08.01.2023 23:00;96.443;;
08.01.2023 23:15;85.093;;
08.01.2023 23:30;82.267;;
08.01.2023 23:45;80.283;;
09.01.2023 00:00;77.815;;
09.01.2023 00:15;75.096;;
09.01.2023 00:30;72.712;;
09.01.2023 00:45;71.146;;
09.01.2023 01:00;70.960;;
09.01.2023 01:15;71.093;;
09.01.2023 01:30;68.827;;
09.01.2023 01:45;69.087;;
09.01.2023 02:00;70.786;;
09.01.2023 02:15;70.762;;
09.01.2023 02:30;74.892;;
09.01.2023 02:45;82.717;;
09.01.2023 03:00;92.605;;
09.01.2023 03:15;102.526;;
09.01.2023 03:30;104.466;;
09.01.2023 03:45;101.294;;
09.01.2023 04:00;89.031;;
09.01.2023 04:15;85.106;;
09.01.2023 04:30;85.255;;
09.01.2023 04:45;82.887;;
09.01.2023 05:00;87.531;;
09.01.2023 05:15;95.378;;
09.01.2023 05:30;92.994;;
09.01.2023 05:45;92.552;;
09.01.2023 06:00;102.844;;
09.01.2023 06:15;106.179;;
09.01.2023 06:30;106.838;;
09.01.2023 06:45;115.838;;
09.01.2023 07:00;122.550;;
09.01.2023 07:15;136.562;;
09.01.2023 07:30;145.432;;
09.01.2023 07:45;144.896;;
09.01.2023 08:00;148.532;;
09.01.2023 08:15;150.751;;
09.01.2023 08:30;146.243;;
09.01.2023 08:45;143.077;;
09.01.2023 09:00;142.856;;
09.01.2023 09:15;147.111;;
09.01.2023 09:30;151.682;;
09.01.2023 09:45;151.803;;
09.01.2023 10:00;153.459;;
09.01.2023 10:15;153.925;;
09.01.2023 10:30;151.092;;
09.01.2023 10:45;147.653;;
09.01.2023 11:00;146.401;;
09.01.2023 11:15;147.902;;
09.01.2023 11:30;149.645;;
09.01.2023 11:45;156.713;;
09.01.2023 12:00;154.727;;
09.01.2023 12:15;142.766;;
09.01.2023 12:30;148.904;;
09.01.2023 12:45;158.526;;
09.01.2023 13:00;158.270;;
09.01.2023 13:15;158.611;;
09.01.2023 13:30;159.749;;
09.01.2023 13:45;154.427;;
09.01.2023 14:00;151.235;;
09.01.2023 14:15;151.761;;
09.01.2023 14:30;152.741;;
09.01.2023 14:45;153.644;;
09.01.2023 15:00;156.579;;
09.01.2023 15:15;157.557;;
09.01.2023 15:30;155.141;;
09.01.2023 15:45;148.389;;
09.01.2023 16:00;146.679;;
09.01.2023 16:15;151.986;;
09.01.2023 16:30;150.443;;
09.01.2023 16:45;155.348;;
09.01.2023 17:00;156.832;;
09.01.2023 17:15;167.593;;
09.01.2023 17:30;171.885;;
09.01.2023 17:45;173.813;;
09.01.2023 18:00;172.183;;
09.01.2023 18:15;166.278;;
09.01.2023 18:30;166.124;;
09.01.2023 18:45;167.444;;
09.01.2023 19:00;164.803;;
09.01.2023 19:15;171.093;;
09.01.2023 19:30;175.111;;
09.01.2023 19:45;178.262;;
09.01.2023 20:00;187.542;;
09.01.2023 20:15;179.196;;
09.01.2023 20:30;181.279;;
09.01.2023 20:45;179.542;;
09.01.2023 21:00;171.697;;
09.01.2023 21:15;163.059;;
09.01.2023 21:30;156.524;;
09.01.2023 21:45;146.745;;
09.01.2023 22:00;153.711;;
09.01.2023 22:15;155.787;;
09.01.2023 22:30;151.418;;
09.01.2023 22:45;150.082;;
09.01.2023 23:00;144.068;;
09.01.2023 23:15;134.865;;
09.01.2023 23:30;129.376;;
09.01.2023 23:45;124.214;;